�������l�o���
Date,Time,MP-1(��Sv/h),MP-2(��Sv/h),MP-3(��Sv/h),MP-4(��Sv/h),MP-5(��Sv/h),MP-6(��Sv/h),MP-7(��Sv/h),����,����(m/s),���J
2020/05/16,00:00,0.185,0.168,0.275,0.260,0.266,0.145,0.088,�k,6.8,��
2020/05/16,00:10,0.184,0.169,0.275,0.263,0.264,0.145,0.088,�k�k��,6.3,��
2020/05/16,00:20,0.183,0.168,0.274,0.262,0.265,0.145,0.088,�k�k��,5.9,��
2020/05/16,00:30,0.184,0.169,0.275,0.261,0.264,0.146,0.088,�k�k��,7.6,��
2020/05/16,00:40,0.183,0.168,0.274,0.262,0.264,0.144,0.088,�k�k��,6.2,��
2020/05/16,00:50,0.185,0.168,0.277,0.262,0.265,0.145,0.089,�k�k��,6.2,��
2020/05/16,01:00,0.183,0.167,0.274,0.261,0.264,0.146,0.088,�k�k��,4.9,��
2020/05/16,01:10,0.184,0.167,0.275,0.262,0.265,0.145,0.088,�k�k��,6.1,��
2020/05/16,01:20,0.183,0.169,0.274,0.261,0.264,0.145,0.088,�k�k��,5.9,��
2020/05/16,01:30,0.184,0.167,0.274,0.260,0.264,0.145,0.087,�k�k��,5.3,��
2020/05/16,01:40,0.182,0.168,0.274,0.262,0.265,0.144,0.086,�k�k��,6.3,��
2020/05/16,01:50,0.184,0.166,0.273,0.259,0.264,0.143,0.087,�k�k��,6.6,��
2020/05/16,02:00,0.182,0.166,0.275,0.260,0.263,0.144,0.086,�k,7.0,��
2020/05/16,02:10,0.183,0.166,0.272,0.259,0.264,0.144,0.087,�k�k��,6.9,��
2020/05/16,02:20,0.184,0.169,0.274,0.260,0.263,0.144,0.087,�k�k��,5.9,��
2020/05/16,02:30,0.182,0.166,0.272,0.259,0.265,0.144,0.086,�k�k��,4.8,��
2020/05/16,02:40,0.183,0.167,0.274,0.260,0.263,0.144,0.087,�k�k��,3.9,��
2020/05/16,02:50,0.183,0.167,0.273,0.259,0.265,0.143,0.086,�k�k��,3.8,��
2020/05/16,03:00,0.183,0.166,0.274,0.261,0.263,0.143,0.087,�k,4.1,��
2020/05/16,03:10,0.183,0.167,0.273,0.259,0.264,0.143,0.087,�k�k��,5.6,��
2020/05/16,03:20,0.183,0.165,0.273,0.260,0.263,0.144,0.086,�k�k��,6.0,��
2020/05/16,03:30,0.182,0.167,0.274,0.261,0.264,0.143,0.086,�k�k��,5.8,��
2020/05/16,03:40,0.183,0.166,0.272,0.259,0.261,0.143,0.087,�k�k��,4.8,��
2020/05/16,03:50,0.182,0.166,0.274,0.260,0.264,0.143,0.086,�k�k��,6.1,��
2020/05/16,04:00,0.183,0.167,0.272,0.259,0.263,0.143,0.087,�k�k��,6.0,��
2020/05/16,04:10,0.182,0.167,0.273,0.261,0.264,0.143,0.086,�k�k��,5.9,��
2020/05/16,04:20,0.183,0.167,0.273,0.259,0.262,0.144,0.087,�k�k��,5.8,��
2020/05/16,04:30,0.181,0.167,0.274,0.261,0.265,0.145,0.087,�k�k��,5.7,��
2020/05/16,04:40,0.182,0.167,0.272,0.258,0.261,0.143,0.087,�k�k��,5.3,��
2020/05/16,04:50,0.183,0.166,0.273,0.260,0.265,0.144,0.087,�k��,5.4,��
2020/05/16,05:00,0.182,0.166,0.274,0.261,0.261,0.144,0.087,�k�k��,5.3,��
2020/05/16,05:10,0.181,0.166,0.274,0.260,0.263,0.143,0.087,�k��,3.8,��
2020/05/16,05:20,0.183,0.166,0.274,0.260,0.263,0.145,0.087,�k��,2.5,�L
2020/05/16,05:30,0.182,0.166,0.273,0.259,0.265,0.144,0.087,���k��,1.6,�L
2020/05/16,05:40,0.183,0.168,0.274,0.261,0.264,0.144,0.087,�k��,2.3,��
2020/05/16,05:50,0.182,0.167,0.273,0.259,0.265,0.144,0.088,�k��,1.5,��
2020/05/16,06:00,0.184,0.167,0.274,0.262,0.263,0.144,0.087,�k�k��,0.7,��
2020/05/16,06:10,0.183,0.168,0.272,0.260,0.263,0.143,0.087,�k�k��,1.2,��
2020/05/16,06:20,0.184,0.167,0.275,0.261,0.262,0.144,0.087,�k�k��,0.9,��
2020/05/16,06:30,0.183,0.167,0.273,0.261,0.265,0.144,0.088,���k��,0.7,��
2020/05/16,06:40,0.184,0.166,0.274,0.261,0.261,0.144,0.087,���k��,2.9,��
2020/05/16,06:50,0.182,0.167,0.273,0.261,0.266,0.144,0.088,��,2.4,��
2020/05/16,07:00,0.184,0.167,0.275,0.261,0.263,0.145,0.088,��,1.8,��
2020/05/16,07:10,0.182,0.167,0.273,0.260,0.265,0.144,0.088,��,1.1,��
2020/05/16,07:20,0.184,0.167,0.276,0.263,0.264,0.146,0.087,�쓌,1.5,�L
2020/05/16,07:30,0.183,0.167,0.273,0.261,0.265,0.144,0.088,���쓌,1.7,�L
2020/05/16,07:40,0.184,0.168,0.274,0.262,0.262,0.145,0.087,��쓌,1.2,��
2020/05/16,07:50,0.182,0.167,0.272,0.260,0.264,0.144,0.087,��쓌,2.5,�L
2020/05/16,08:00,0.183,0.167,0.274,0.261,0.263,0.143,0.087,�쓌,2.8,��
2020/05/16,08:10,0.182,0.167,0.273,0.259,0.265,0.144,0.086,���쓌,1.6,��
2020/05/16,08:20,0.182,0.168,0.273,0.260,0.263,0.144,0.087,�k��,2.0,��
2020/05/16,08:30,0.182,0.167,0.271,0.260,0.264,0.144,0.087,���k��,1.4,��
2020/05/16,08:40,0.182,0.167,0.273,0.261,0.262,0.143,0.088,���k��,2.3,��
2020/05/16,08:50,0.181,0.166,0.271,0.259,0.261,0.144,0.087,�k�k��,1.7,��
2020/05/16,09:00,0.183,0.168,0.273,0.260,0.263,0.142,0.086,�k�k��,1.5,��
2020/05/16,09:10,0.182,0.166,0.272,0.258,0.261,0.144,0.087,�k��,1.3,��
2020/05/16,09:20,0.180,0.168,0.274,0.260,0.264,0.143,0.087,��,0.6,��
2020/05/16,09:30,0.182,0.166,0.272,0.258,0.263,0.143,0.087,-,CALM,��
2020/05/16,09:40,0.181,0.165,0.270,0.259,0.260,0.144,0.086,�쓌,0.9,��
2020/05/16,09:50,0.182,0.166,0.274,0.260,0.263,0.143,0.085,��,1.8,��
2020/05/16,10:00,0.183,0.165,0.271,0.257,0.263,0.143,0.088,��쓌,2.6,��
2020/05/16,10:10,0.181,0.167,0.270,0.262,0.260,0.143,0.086,��쓌,2.6,��
2020/05/16,10:20,0.183,0.166,0.274,0.259,0.264,0.143,0.086,��쓌,2.4,��
2020/05/16,10:30,0.181,0.166,0.270,0.258,0.262,0.143,0.087,��쓌,3.2,��
2020/05/16,10:40,0.181,0.167,0.271,0.260,0.260,0.144,0.086,��,3.9,��
2020/05/16,10:50,0.183,0.166,0.273,0.259,0.261,0.142,0.086,��쓌,4.7,��
2020/05/16,11:00,0.181,0.165,0.272,0.257,0.263,0.144,0.087,��쓌,5.0,�L
2020/05/16,11:10,0.182,0.166,0.272,0.260,0.261,0.143,0.086,��쓌,5.1,��
2020/05/16,11:20,0.183,0.165,0.275,0.259,0.263,0.144,0.087,��쓌,4.3,��
2020/05/16,11:30,0.180,0.166,0.272,0.257,0.265,0.143,0.086,��쓌,4.5,��
2020/05/16,11:40,0.183,0.167,0.272,0.262,0.260,0.143,0.086,�쓌,5.0,��
2020/05/16,11:50,0.180,0.166,0.273,0.258,0.265,0.145,0.087,�쓌,5.6,��
2020/05/16,12:00,0.183,0.166,0.272,0.260,0.262,0.144,0.086,��쓌,4.8,��
2020/05/16,12:10,0.182,0.164,0.274,0.260,0.261,0.143,0.087,��쓌,5.0,��
2020/05/16,12:20,0.181,0.168,0.273,0.258,0.264,0.143,0.086,��,5.7,�L
2020/05/16,12:30,0.183,0.166,0.274,0.260,0.261,0.143,0.087,��,7.3,�L
2020/05/16,12:40,0.182,0.167,0.272,0.259,0.264,0.145,0.087,��,7.6,�L
2020/05/16,12:50,0.183,0.166,0.274,0.261,0.263,0.143,0.087,��,8.1,��
2020/05/16,13:00,0.183,0.167,0.273,0.258,0.264,0.145,0.087,��,7.1,��
2020/05/16,13:10,0.183,0.167,0.271,0.261,0.261,0.144,0.088,��,6.7,��
2020/05/16,13:20,0.182,0.166,0.273,0.258,0.260,0.143,0.087,��,8.2,��
2020/05/16,13:30,0.181,0.166,0.270,0.261,0.264,0.144,0.086,��,9.5,��
2020/05/16,13:40,0.182,0.165,0.273,0.257,0.259,0.143,0.086,��,8.1,��
2020/05/16,13:50,0.181,0.166,0.271,0.260,0.263,0.144,0.087,��,10.7,��
2020/05/16,14:00,0.182,0.165,0.271,0.258,0.262,0.143,0.086,��,9.2,��
2020/05/16,14:10,0.182,0.167,0.273,0.259,0.261,0.143,0.086,��,9.8,��
2020/05/16,14:20,0.182,0.166,0.272,0.258,0.264,0.144,0.086,��,9.5,��
2020/05/16,14:30,0.183,0.165,0.273,0.258,0.260,0.143,0.086,��,8.5,��
2020/05/16,14:40,0.181,0.166,0.270,0.261,0.262,0.143,0.086,��,9.8,��
2020/05/16,14:50,0.182,0.166,0.272,0.260,0.261,0.142,0.086,��쐼,9.6,��
2020/05/16,15:00,0.182,0.166,0.271,0.261,0.263,0.143,0.087,��,10.7,��
2020/05/16,15:10,0.181,0.166,0.273,0.258,0.262,0.143,0.086,��,9.2,�L
2020/05/16,15:20,0.183,0.167,0.273,0.260,0.262,0.142,0.086,��,10.3,�L
2020/05/16,15:30,0.181,0.166,0.272,0.258,0.263,0.144,0.086,��,9.5,��
2020/05/16,15:40,0.183,0.166,0.272,0.259,0.262,0.143,0.086,��,10.1,��
2020/05/16,15:50,0.180,0.166,0.272,0.259,0.263,0.144,0.086,��,10.9,��
2020/05/16,16:00,0.183,0.167,0.273,0.260,0.260,0.143,0.087,��,12.9,�L
2020/05/16,16:10,0.182,0.166,0.271,0.259,0.265,0.144,0.086,��,11.8,�L
2020/05/16,16:20,0.182,0.167,0.274,0.260,0.262,0.144,0.087,��,12.6,�L
2020/05/16,16:30,0.183,0.168,0.273,0.260,0.266,0.145,0.088,��,13.7,�L
2020/05/16,16:40,0.185,0.169,0.276,0.263,0.263,0.145,0.089,��,14.8,�L
2020/05/16,16:50,0.185,0.168,0.275,0.262,0.265,0.147,0.091,��,12.2,�L
2020/05/16,17:00,0.186,0.170,0.275,0.264,0.264,0.148,0.091,��,11.2,�L
2020/05/16,17:10,0.185,0.169,0.274,0.262,0.267,0.148,0.091,��,8.5,�L
2020/05/16,17:20,0.186,0.171,0.276,0.263,0.264,0.147,0.090,��,6.7,�L
2020/05/16,17:30,0.185,0.169,0.274,0.262,0.266,0.147,0.091,��쐼,7.8,�L
2020/05/16,17:40,0.186,0.168,0.273,0.263,0.264,0.146,0.089,��쐼,6.1,�L
2020/05/16,17:50,0.184,0.169,0.274,0.262,0.265,0.146,0.090,��쐼,5.2,�L
2020/05/16,18:00,0.185,0.168,0.272,0.260,0.263,0.145,0.089,��쐼,5.1,��
2020/05/16,18:10,0.182,0.168,0.274,0.261,0.264,0.145,0.089,��쐼,5.3,��
2020/05/16,18:20,0.184,0.168,0.271,0.258,0.262,0.144,0.088,��,5.7,��
2020/05/16,18:30,0.182,0.166,0.272,0.261,0.263,0.145,0.087,��,6.3,��
2020/05/16,18:40,0.183,0.167,0.271,0.259,0.261,0.144,0.087,��,6.4,��
2020/05/16,18:50,0.182,0.166,0.272,0.259,0.262,0.144,0.087,��,7.2,��
2020/05/16,19:00,0.182,0.166,0.271,0.258,0.261,0.143,0.086,��,6.8,��
2020/05/16,19:10,0.181,0.166,0.271,0.258,0.263,0.142,0.087,��,7.5,��
2020/05/16,19:20,0.181,0.166,0.271,0.257,0.260,0.144,0.086,��,6.8,��
2020/05/16,19:30,0.182,0.166,0.272,0.260,0.262,0.143,0.086,��,6.6,��
2020/05/16,19:40,0.181,0.165,0.270,0.257,0.260,0.143,0.086,��,6.4,��
2020/05/16,19:50,0.182,0.165,0.271,0.259,0.263,0.143,0.086,��,5.4,��
2020/05/16,20:00,0.181,0.166,0.269,0.256,0.259,0.143,0.086,��,6.4,�L
2020/05/16,20:10,0.183,0.165,0.272,0.259,0.264,0.142,0.086,��,6.7,�L
2020/05/16,20:20,0.180,0.165,0.268,0.257,0.261,0.144,0.086,��,7.1,��
2020/05/16,20:30,0.183,0.166,0.271,0.260,0.262,0.143,0.086,��,7.7,��
2020/05/16,20:40,0.180,0.166,0.270,0.258,0.262,0.143,0.087,��,7.0,��
2020/05/16,20:50,0.182,0.167,0.272,0.259,0.262,0.142,0.087,��,6.6,��
2020/05/16,21:00,0.180,0.166,0.270,0.257,0.259,0.142,0.085,��쐼,6.6,��
2020/05/16,21:10,0.181,0.166,0.271,0.258,0.263,0.142,0.086,��,5.6,��
2020/05/16,21:20,0.181,0.165,0.270,0.257,0.260,0.143,0.086,��,5.9,��
2020/05/16,21:30,0.182,0.166,0.273,0.258,0.262,0.143,0.087,��,5.4,��
2020/05/16,21:40,0.181,0.166,0.269,0.256,0.261,0.143,0.086,��,6.2,��
2020/05/16,21:50,0.182,0.166,0.272,0.259,0.263,0.143,0.086,��,6.4,��
2020/05/16,22:00,0.182,0.165,0.270,0.258,0.261,0.142,0.087,��,6.6,��
2020/05/16,22:10,0.182,0.166,0.272,0.258,0.261,0.143,0.086,��,7.2,��
2020/05/16,22:20,0.181,0.164,0.269,0.257,0.259,0.142,0.085,��,7.3,��
2020/05/16,22:30,0.182,0.167,0.271,0.258,0.261,0.143,0.085,��,7.5,��
2020/05/16,22:40,0.181,0.164,0.269,0.259,0.260,0.142,0.086,��,6.8,��
2020/05/16,22:50,0.182,0.165,0.271,0.257,0.260,0.143,0.086,��쐼,6.7,��
2020/05/16,23:00,0.181,0.166,0.269,0.258,0.261,0.142,0.086,��쐼,5.9,��
2020/05/16,23:10,0.182,0.165,0.272,0.259,0.262,0.144,0.087,��쐼,5.1,��
2020/05/16,23:20,0.181,0.166,0.270,0.258,0.261,0.142,0.086,��,4.2,��
2020/05/16,23:30,0.182,0.166,0.271,0.256,0.260,0.144,0.086,��,4.8,��
2020/05/16,23:40,0.182,0.167,0.268,0.258,0.262,0.142,0.086,��,4.7,��
2020/05/16,23:50,0.181,0.165,0.272,0.258,0.261,0.142,0.086,��,4.1,��
